Flag for U.S.A. Weather past 2 weeks in Omaha, Nebraska, U.S.A.

54 °F


Feels Like: 50 °F
Forecast: 39 / 53 °F
Wind: 13 mph from Southeast

Location: Millard Airport

Current Time: Nov 25, 2015 at 12:47:59 AM

Latest Report: Nov 25, 2015 at 12:15 AM

Visibility: 10 mi

Pressure: 29.87 "Hg

Humidity: 53%

Dew point: 37 °F

Location of OmahaLocation

Historic Weather in Omaha — Graph


Omaha temperature yesterday

Maximum temperature yesterday: 57 °F (at 3:55 PM)
Minimum temperature yesterday: 34 °F (at 7:35 AM)
Average temperature yesterday: 46 °F

Past Weeks' High & Low Weather Summary

High68 °F (Nov 14, 3:15 PM)97% (Nov 11, 11:35 AM)30.42 "Hg (Nov 11, 11:35 AM)
Low22 °F (Nov 21, 7:35 AM)24% (Nov 19, 2:15 PM)29.25 "Hg (Nov 18, 4:35 AM)
Average44 °F69%29.93 "Hg
* Reported Nov 9 11:15 PM — Nov 24 11:15 PM, Omaha, Weather by CustomWeather, © 2015

Note: Actual official high and low records may vary slightly from our data, if they occured in-between our weather recording intervals... More about our weather records


Omaha weather history for previous 24 hours

Time TempWeatherWind HumidityBarometerVisibility
11:15 PM
Tue, Nov 24
54 °FMostly cloudy.10 mph53%29.87 "Hg10 mi
10:55 PM54 °FMostly cloudy.12 mph54%29.87 "Hg10 mi
10:15 PM53 °FMostly cloudy.12 mph55%29.88 "Hg10 mi
9:35 PM52 °FOvercast.9 mph60%29.89 "Hg10 mi
9:15 PM52 °FOvercast.8 mph61%29.89 "Hg10 mi
8:55 PM51 °FOvercast.8 mph62%29.88 "Hg10 mi
8:35 PM51 °FOvercast.9 mph63%29.89 "Hg10 mi
8:15 PM48 °FOvercast.No wind65%29.89 "Hg10 mi
7:55 PM48 °FPassing clouds.5 mph64%29.89 "Hg10 mi
7:15 PM49 °FClear.No wind61%29.89 "Hg10 mi
6:35 PM50 °FClear.6 mph58%29.89 "Hg10 mi
6:15 PM51 °FClear.5 mph57%29.89 "Hg10 mi
5:55 PM51 °FClear.5 mph57%29.89 "Hg10 mi
5:15 PM54 °FClear.8 mph51%29.89 "Hg10 mi
4:55 PM53 °FSunny.8 mph53%29.88 "Hg10 mi
4:15 PM56 °FSunny.12 mph47%29.88 "Hg10 mi
3:55 PM57 °FSunny.16 mph45%29.88 "Hg10 mi
3:35 PM56 °FSunny.18 mph47%29.88 "Hg10 mi
3:15 PM56 °FSunny.15 mph48%29.88 "Hg10 mi
2:55 PM56 °FSunny.14 mph48%29.88 "Hg10 mi
2:15 PM56 °FSunny.15 mph49%29.88 "Hg10 mi
1:55 PM55 °FSunny.14 mph49%29.89 "Hg10 mi
1:35 PM55 °FSunny.15 mph49%29.90 "Hg10 mi
1:15 PM55 °FSunny.13 mph49%29.91 "Hg10 mi
12:55 PM55 °FSunny.12 mph48%29.92 "Hg10 mi
12:15 PM54 °FSunny.9 mph51%29.95 "Hg10 mi
11:55 AM52 °FSunny.10 mph52%29.96 "Hg10 mi
11:15 AM50 °FSunny.8 mph56%29.99 "Hg10 mi
10:55 AM49 °FSunny.12 mph58%30.00 "Hg10 mi
10:35 AM48 °FSunny.12 mph59%30.01 "Hg10 mi
10:15 AM47 °FSunny.13 mph59%30.01 "Hg10 mi
9:55 AM47 °FSunny.13 mph62%30.01 "Hg10 mi
9:35 AM45 °FSunny.15 mph65%30.01 "Hg10 mi
9:15 AM43 °FSunny.10 mph67%30.02 "Hg10 mi
8:55 AM42 °FSunny.12 mph69%30.02 "Hg10 mi
8:35 AM39 °FSunny.7 mph75%30.03 "Hg10 mi
8:15 AM38 °FSunny.8 mph77%30.02 "Hg10 mi
7:55 AM36 °FSunny.5 mph80%30.03 "Hg10 mi
7:35 AM34 °FSunny.7 mph84%30.02 "Hg10 mi
7:15 AM35 °FClear.7 mph81%30.03 "Hg10 mi
6:55 AM36 °FClear.3 mph80%30.03 "Hg10 mi
6:35 AM36 °FClear.3 mph80%30.03 "Hg10 mi
6:15 AM36 °FClear.3 mph78%30.04 "Hg10 mi
5:55 AM36 °FClear.5 mph78%30.04 "Hg10 mi
5:35 AM36 °FClear.3 mph79%30.04 "Hg10 mi
5:15 AM36 °FClear.No wind79%30.04 "Hg10 mi
4:55 AM36 °FClear.5 mph79%30.04 "Hg10 mi
4:35 AM36 °FClear.5 mph79%30.05 "Hg10 mi
4:15 AM36 °FClear.3 mph78%30.05 "Hg10 mi
3:55 AM36 °FClear.3 mph78%30.05 "Hg10 mi
3:35 AM36 °FClear.5 mph77%30.05 "Hg10 mi
3:15 AM38 °FClear.5 mph74%30.06 "Hg10 mi
2:55 AM39 °FClear.5 mph72%30.06 "Hg10 mi
2:35 AM39 °FClear.6 mph71%30.07 "Hg10 mi
2:15 AM39 °FClear.7 mph71%30.07 "Hg10 mi
1:55 AM40 °FClear.7 mph69%30.07 "Hg10 mi
12:55 AM38 °FClear.5 mph73%30.09 "Hg10 mi
12:35 AM37 °FClear.No wind77%30.09 "Hg10 mi
12:15 AM37 °FClear.No wind80%30.09 "Hg10 mi
Weather by CustomWeather, © 2015

See weather overviewHow to use our weather pages